Location: Newark
(45.8667°N, 9.7333°E)
Time: 17:33:56
(UTC+00:00)

AO-73 - Pass Details

Date: 25 February 2020
Orbit: 581 x 664 km, 97.6° (Epoch: 04 April)

Event Time Altitude Azimuth Distance (km) Brightness Sun altitude
Rises 18:07:31 0° 220° (SW) 2,920 ? -12.3°
Reaches altitude 10° 18:11:14 10° 253° (WSW) 2,040 ? -12.9°
Maximum altitude 18:12:47 12° 273° (W) 1,943 ? -13.2°
Drops below altitude 10° 18:14:21 10° 294° (WNW) 2,061 ? -13.5°
Sets 18:18:11 0° 327° (NNW) 2,995 ? -14.2°
